Meath Environmental Platform

Observations

Time Sensor AQI SAQ Temp °C Hum % Pres Pa CO μg/m³ H₂S μg/m³ NO μg/m³ NO₂ μg/m³ O₃ μg/m³ SO₂ μg/m³ CO₂e PPM VOC PPM PM1 μg/m³ PM2.5 μg/m³ PM4 μg/m³ PM10 μg/m³ TPS µm
Wednesday 12 August 2026
15:28 Trim Market St 3 39.2 26 67,051 0 0 0 13.35 80.35 4.56 1.43 4.57 5.02
15:27 Trim Patrick St 3 37.2 31 69,774 0 0 0.01 11.56 132.63 25.1 3.71 9.22 10.14
15:26 Trim Patrick St 3 37.3 30 69,762 0 0 0.01 11.77 111.97 24.06 2.86 10.06 11.06
15:26 Trim Market St 3 39.6 26 67,088 0 0 0 13.51 100.31 3.9 2.85 5.68 5.75
15:25 Trim Patrick St 3 37.4 30 69,746 0 0 0 10.93 95.76 24.04 4.57 10.87 11.96
15:24 Trim Patrick St 3 37.6 30 69,750 0 0 0 11.91 102.91 23.94 4.57 10.87 11.96
15:23 Trim Patrick St 3 37.7 30 69,754 0 0 0 12.18 136.99 24.31 2.86 9.29 10.21
15:23 Trim Market St 3 40.3 26 67,155 0 0 0 13.07 110.4 4.88 1.43 5.15 5.67
15:21 Trim Patrick St 3 37.8 30 69,766 0 0 0 10.34 92.85 24.48 2.86 9.27 10.2
15:19 Trim Patrick St 3 37.9 30 69,776 0 0 0 12.68 111.61 23.19 2 9.28 10.21
15:19 Trim Market St 3 41 25 67,195 0 0 0 13.85 94.43 4.15 2.14 4.61 5.07
15:18 Trim Patrick St 3 38 30 69,780 0 0 0 10.41 85 23.72 4.57 10.09 11.1
15:17 Trim Patrick St 3 38 30 69,791 0 0 0 13.06 117.83 22.2 3.71 10.1 11.11
15:17 Trim Market St 3 41.1 25 67,179 0 0 0 13.88 89.48 4.62 1.43 5.16 5.68
15:16 Trim Market St 3 41.1 25 67,193 0 0 0 13.85 85.81 3.97 0.71 3.52 3.87
15:15 Trim Patrick St 3 38 30 69,806 0 0 0 10.54 103.46 23.69 3.71 10.92 12.01
15:14 Trim Patrick St 3 38 30 69,818 0 0 0 10.58 81.31 22.54 4.57 10.93 12.03
15:13 Trim Patrick St 3 38 31 69,806 0 0 0 12.85 109.67 23.79 3.71 10.04 11.04
15:12 Trim Patrick St 3 38 31 69,782 0 0 0 12.86 88.83 22.36 2.86 8.43 9.28
15:11 Trim Patrick St 3 38 31 69,758 0 0 0 7.89 88.02 22.71 3.71 10.05 11.05